Regional Weather Roundup
Issued by NWS

Home | Current Version | Previous Version | Graphics & Text | Print | Product List | Glossary On
Versions: 1 2 3 4 5 6 7 8 9 10 11 12 13 14 15 16 17 18 19 20 21 22 23 24 25 26 27 28 29 30 31 32 33 34 35 36 37 38 39 40 41 42 43 44 45 46 47 48 49 50
000
ASUS43 KMKX 311021
RWRWI

WISCONSIN REGIONAL WEATHER ROUNDUP
NATIONAL WEATHER SERVICE MILWAUKEE/SULLIVAN WI
400 AM CST SAT JAN 31 2015

NOTE: "FAIR" INDICATES FEW OR NO CLOUDS BELOW 12,000 FEET WITH NO
SIGNIFICANT WEATHER AND/OR OBSTRUCTIONS TO VISIBILITY.

WIZ001-002-006>008-014>016-023>028-311100-
NORTHWEST WISCONSIN

CITY           SKY/WX    TMP DP  RH WIND       PRES   REMARKS
SUPERIOR ARPT  CLOUDY    21  14  75 SW5       30.14R WCI  15
ASHLAND        CLOUDY    21  15  78 SW7       30.12S WCI  12
HAYWARD        CLOUDY    21  14  74 S5        30.10S WCI  15
SIREN          CLOUDY    23  18  82 CALM      30.12S
CUMBERLAND     CLOUDY    21  14  73 CALM      30.10F
RICE LAKE      CLOUDY    19  12  73 CALM      30.13S
CHETEK         CLOUDY    19  12  74 CALM      30.12F
LADYSMITH      CLOUDY    20  12  72 CALM      30.13S
EAU CLAIRE     CLOUDY    21  12  68 CALM      30.12F
MENOMONIE      CLOUDY    23  17  77 CALM      30.13S
NEW RICHMOND   CLOUDY    26  21  82 CALM      30.12S
OSCEOLA        CLOUDY    26  21  83 CALM      30.15S
$$

WIZ003>005-009-010-017-018-311100-
NORTH CENTRAL WISCONSIN

CITY           SKY/WX    TMP DP  RH WIND       PRES   REMARKS
MANITOWISH WTR CLOUDY    17  12  82 SW5       30.06S WCI  10
ARBOR VITAE    CLOUDY    18  12  76 CALM      30.06F
WOODRUFF       CLOUDY    18  12  76 CALM      30.06F
RHINELANDER    CLOUDY    17   9  70 SW7       30.07F WCI   8
EAGLE RIVER    CLOUDY    17   8  70 SW5       30.05F WCI   9
LAND O LAKES   CLOUDY    17  10  75 CALM      30.06F
PHILLIPS       CLOUDY    19  12  77 SW3       30.08F
TOMAHAWK       CLOUDY    18  10  69 CALM      30.09S
MEDFORD        CLOUDY    19  11  72 SW5       30.09F WCI  12
MERRILL        CLOUDY    19  11  69 W3        30.10S
$$

WIZ029-030-035-036-043>047-311100-
CENTRAL WISCONSIN

CITY           SKY/WX    TMP DP  RH WIND       PRES   REMARKS
WAUSAU         CLOUDY    18   9  68 SW6       30.10F WCI  10
MOSINEE        CLOUDY    19  12  73 S5        30.12F WCI  13
MARSHFIELD     CLOUDY    18  10  71 S7        30.11F WCI   9
STEVENS POINT  CLOUDY    18  10  72 SW5       30.14F WCI  11
WAUPACA        CLOUDY    21  13  70 SW6       30.17F WCI  13
WAUTOMA        MOCLDY    16  12  84 CALM      30.17F
WISC RAPIDS    CLOUDY    19  10  68 CALM      30.15F
CAMP DOUGLAS   CLOUDY    26  17  68 SW7       30.15S WCI  18
$$

WIZ011>013-019>022-031-037>040-048>050-311100-
NORTHEAST WISCONSIN

CITY           SKY/WX    TMP DP  RH WIND       PRES   REMARKS
ANTIGO         CLOUDY    17  10  74 SW6       30.09F WCI   9
SHAWANO        CLOUDY    22  12  65 SW5       30.16S WCI  15
OCONTO         CLOUDY    21  12  68 MISG      30.16F
STURGEON BAY   CLOUDY    21  10  63 SW8       30.17F WCI  12
GREEN BAY      CLOUDY    20  13  74 S8        30.18S WCI  10
MANITOWOC      CLOUDY    23  16  74 SW9         N/A  WCI  13
APPLETON       CLOUDY    21  14  73 S7        30.17S WCI  13
CLINTONVILLE   CLOUDY    21  12  68 SW7       30.15F WCI  13
OSHKOSH        CLOUDY    20  13  74 S8        30.17F WCI  10
$$

WIZ032>034-041-042-053>061-311100-
SOUTHWEST WISCONSIN

CITY           SKY/WX    TMP DP  RH WIND       PRES   REMARKS
LA CROSSE      PTCLDY    23  13  65 CALM      30.17S
SPARTA         CLOUDY    25  14  63 CALM      30.16F
VIROQUA        CLEAR     19  14  79 SW5       30.13S WCI  12
BOSCOBEL       PTCLDY    18  12  77 CALM      30.19F
PRAIRIE DU CHI CLEAR     24  14  64 CALM      30.18F
PLATTEVILLE    CLEAR     19  16  85 S8        30.17F WCI   9
$$

WIZ056-057-062-063-064-067-068-311100-
SOUTH CENTRAL WISCONSIN

CITY           SKY/WX    TMP DP  RH WIND       PRES   REMARKS
REEDSBURG      MOCLDY    22  15  73 CALM      30.17S
BARABOO/DELLS  CLOUDY    25  16  68 SW12      30.16S WCI  14
LONE ROCK      CLEAR     19  12  74 CALM      30.18F
MINERAL POINT  CLEAR     21  18  86 S6        30.16F WCI  14
MADISON        CLOUDY    24  16  71 S6        30.18F WCI  17
MIDDLETON      CLOUDY    26  16  65 SW6       30.18F WCI  19
WATERTOWN      CLEAR     17  14  89 CALM      30.19F
MONROE         CLEAR     23  19  86 SW13      30.17F WCI  11
JANESVILLE     PTCLDY    25  19  80 S8        30.21F WCI  16
$$

WIZ051-052-058>065-066-070>072-311100-
SOUTHEAST WISCONSIN

CITY           SKY/WX    TMP DP  RH WIND       PRES   REMARKS
MILWAUKEE      PTCLDY    20  13  74 SW7       30.22F WCI  11
WAUKESHA       PTCLDY    18  14  86 S5        30.21F WCI  11
MILWAUKEE/TIMM PTCLDY    19  14  79 SW5       30.22F WCI  13
RACINE         PTCLDY    20  14  77 SW8       30.25F WCI  10
BURLINGTON     PTCLDY    17  14  85 S3        30.22F
KENOSHA        PTCLDY    20  15  81 S5        30.23F WCI  13
FOND DU LAC    CLOUDY    21  14  74 S7        30.18F WCI  12
SHEBOYGAN      MOCLDY    17  12  80 SW7       30.19F WCI   8
WEST BEND      CLEAR     19  14  79 SW6       30.20S WCI  11
JUNEAU         PTCLDY    17  13  84 S6        30.20F WCI   9
$$

LSZ147-162-311100-
LAKE SUPERIOR

STATION/POSITION TIME  TEMP    WIND        PRES    WAVE
                       AIR SEA DIR/SP/G            HT/PER
                 (UTC) (F)     (DEG/KT/KT) (MB)    (FT/S)
DEVILS ISLAND    1000   25     290/ 14/ 18 1020.5F
PORT WING        0900   21     190/  4/  6 1020.3S
SAXON HARBOR     0900   23      CALM  /  8 1020.0S
$$

LMZ867-665-643>646-311100-
LAKE MICHIGAN

STATION/POSITION TIME  TEMP    WIND        PRES    WAVE
                       AIR SEA DIR/SP/G            HT/PER
                 (UTC) (F)     (DEG/KT/KT) (MB)    (FT/S)
NORTHPORT PIER   0918   20     190/  3/  7 1021.7F
SISTER BAY       0913   20        CALM       N/A
KEWAUNEE LAKESHO 1000   22     220/  8/ 11 1021.0F
SHEBOYGAN LAKESH 1000   22     210/  6/  7 1023.9F
PORT WASHINGTON  0940   23     210/  3/  4 1024.0F
MILWAUKEE LAKESH 1000   23     230/ 10/ 11   N/A
KENOSHA   LAKESH 1000   23     210/  7/  9 1024.0F
$$

TC  - TEMPERATURE IN CELSIUS
VSB - VISIBILITY IN STATUTE MILES
WCI - WIND CHILL INDEX
HX  - HEAT INDEX




USA.gov is the U.S. government's official web portal to all federal, state and local government web resources and services.